Tracking 19170 objects as of 22-May-2018
HD Live streaming from Space Station
objects crossing your sky now

ARABSAT 1B

Track ARABSAT 1B now!
ARABSAT 1B is classified as:


NORAD ID: 15825
Int'l Code: 1985-048C
Perigee: 35,675.6 km
Apogee: 35,817.8 km
Inclination: 15.0 °
Period: 1,433.7 minutes
Semi major axis: 42117 km
RCS: 3.4988 m2 (large)
Launch date: June 17, 1985
Source: Arab Satellite Communications Organization (AB)
Launch site: AIR FORCE EASTERN TEST RANGE (AFETR)
aabbcc
Your satellite tracking list
Your tracking list is empty




NASA's NSSDC Master Catalog

Two Line Element Set (TLE):
1 15825U 85048C   18142.15621733 -.00000054  00000-0  00000+0 0  9999
2 15825  14.9859 359.2117 0016871 319.2916  40.6009  1.00439826105874
Source of the keplerian elements: AFSPC